www.pogodaiklimat.ru

Погода и климат >> Архив погоды >> Саудовская Аравия >> Аль-Ула


ПОГОДА в Аль-Уле

  • Прогноз погоды в Аль-Уле
  • Монитор погоды в Аль-Уле

АРХИВ ПОГОДЫ в Аль-Уле

Время (UTC), дата Ветер
(напр.,м/с)
 
Видим.   Явления Облачность Т
(С)
Тd
(С)
f
(%)
Тe
(С)
Тes
(С)
Комфортность P
(гПа)
Po
(гПа)
Тmin
(С)
Tmax
(С)
R
(мм)
R24
(мм)
S
(см)
06 15.09 штиль 0 10 км ясно +31.5 +4.0 18 +29 +39 жарко 1007.0 941.7 +24.7
09 15.09 ЮЗ 3 10 км ясно +38.1 +3.0 11 +35 +49 очень
жарко
1006.7 941.4
12 15.09 ЮЗ 5 10 км ясно +40.5 +6.0 12 +38 +43 очень
жарко
1005.0 939.7
15 15.09 ЮЗ 1 10 км ясно +38.1 +6.0 14 +35 +36 очень
жарко
1005.0 939.7
18 15.09 ЮЗ 5 10 км ясно +33.4 +9.0 22 +32 +32 жарко 1006.6 941.0 +41.7
06 16.09 штиль 0 10 км ясно +31.6 +7.0 22 +30 +40 жарко 1007.8 942.0 +26.7
09 16.09 С 2 10 км ясно +38.3 +6.0 14 +36 +53 опасность
солнечного
удара
1007.4 941.6
12 16.09 З 5 10 км ясно +40.3 +4.0 11 +37 +43 очень
жарко
1006.3 940.5
15 16.09 З 10 10 км ясно +39.9 +3.0 10 +36 +36 очень
жарко
1006.0 940.2
18 16.09 З 6 10 км ясно +35.3 +2.0 12 +32 +32 жарко 1006.3 940.5 +41.6
06 17.09 С 3 10 км 4/4 1200 м
[Sc diur, vesp]
+34.2 +7.0 19 +32 +36 жарко 1006.3 941.5 +30.4
09 17.09 З 2 10 км ясно +39.0 +4.0 12 +36 +53 опасность
солнечного
удара
1006.4 941.6
12 17.09 З 3 10 км ясно +41.3 +2.0 9 +38 +47 очень
жарко
1004.7 939.9
15 17.09 ЮЗ 2 10 км 4/4
[Sc diur, vesp]
+40.9 0.0 8 +37 +37 очень
жарко
1004.3 939.5
18 17.09 СЗ 2 10 км ясно +38.6 +2.0 10 +35 +35 очень
жарко
1004.5 939.7 +42.5
06 18.09 СЗ 2 10 км 3/3 1200 м
[Sc diur, vesp]
+33.3 +6.0 18 +31 +36 жарко 1008.4 943.0 +32.1
09 18.09 СЗ 2 10 км ясно +38.3 +3.0 11 +35 +52 опасность
солнечного
удара
1008.9 942.5
12 18.09 СЗ 2 10 км ясно +42.0 -3.0 6 +38 +49 очень
жарко
1006.7 941.3
15 18.09 ЮЗ 2 10 км 3/3 1200 м
[Sc diur, vesp]
+41.6 -3.0 6 +37 +38 очень
жарко
1006.4 941.0
18 18.09 С 2 10 км ясно +38.9 -2.0 8 +35 +35 очень
жарко
1006.9 941.4 +43.2
06 19.09 штиль 0 10 км ясно +36.3 -2.0 9 +32 +41 жарко 1008.0 943.5 +28.2
09 19.09 ЮВ 3 10 км ясно +41.3 -4.0 6 +37 +51 опасность
солнечного
удара
1006.3 941.8
12 19.09 СВ 2 10 км ясно +41.6 -5.0 5 +37 +48 очень
жарко
1006.1 941.6
15 19.09 СВ 4 10 км ясно +42.1 -5.0 5 +38 +38 очень
жарко
1005.8 941.2
18 19.09 СВ 7 10 км ясно +40.0 -2.0 7 +36 +36 очень
жарко
1006.4 941.6 +43.8
06 20.09 штиль 0 10 км ясно +34.0 -2.0 10 +30 +39 жарко 1008.2 943.4 +28.3
09 20.09 Ю 3 10 км ясно +40.8 -4.0 6 +37 +51 опасность
солнечного
удара
1007.9 943.1
12 20.09 Ю 3 10 км ясно +42.6 -5.0 5 +38 +47 очень
жарко
1006.0 941.2
15 20.09 ЮВ 2 10 км ясно +41.9 -5.0 5 +38 +38 очень
жарко
1005.5 940.7
18 20.09 ЮЗ 2 10 км ясно +36.5 -1.0 9 +33 +33 жарко 1005.8 941.0 +43.3
06 21.09 штиль 0 10 км ясно +32.5 +1.0 13 +29 +38 жарко 1006.3 941.7 +26.9
09 21.09 ЮЗ 10 10 км ясно +40.8 -4.0 6 +37 +37 очень
жарко
1005.5 940.9
12 21.09 ЮЗ 4 10 км ясно +42.5 -5.0 5 +38 +45 очень
жарко
1004.1 939.5
15 21.09 0 н/о
18 21.09 ЮЗ 3 10 км ясно +37.6 +3.0 12 +34 +34 очень
жарко
1003.7 939.1 +43.1

 

Местоположение метеостанции Аль-Ула (Саудовская Аравия): широта 26.48 долгота 38.12 высота над уровнем моря 624 м.

В архиве по умолчанию представлена погода в Аль-Уле за последнюю неделю. Архивные данные за месяц целиком и за предыдущие месяцы, начиная с января 2011 года, Вы можете получить, выбрав интересующий диапазон дат из раскрывающегося списка и нажав кнопку "Ввод!".


*Определитесь, кто Вы:
робот инопланетянин человек

Внимание! Время в таблицах - всемирное. Для получения местного времени необходимо прибавить поправку, которая равна 3 ч.

Смотрите также архив погоды в соседних городах и на ближайших метеорологических станциях:

Погода в Эль-Ваджхе (Саудовская Аравия) (166 км)
Погода в Табуке (Саудовская Аравия) (259 км)
Погода в Янбу (Саудовская Аравия) (261 км)
Погода в Медине (Саудовская Аравия) (267 км)
Погода в Хаиле (Саудовская Аравия) (368 км)
Погода в Эль-Кусейре (Египет) (398 км)
Погода в Эль-Джауфе (Саудовская Аравия) (415 км)
Погода в Хургаде (Египет) (443 км)
Погода в Шалатейне (Египет) (452 км)
Погода в Акаба (Иордания) (459 км)

Пояснения к столбцам:

Ветер - указаны скорость ветра в м/с - средняя за 10 мин, порывы в срок и между сроками (в фигурных скобках) и направление, откуда дует ветер: С - северный, СВ - северо-восточный, В - восточный, ЮВ - юго-восточный, Ю - южный, ЮЗ - юго-западный, З - западный, СЗ - северо-западный.
Видимость - горизонтальная дальность видимости в метрах или километрах. При видимости от 1 до 10 км при отсутствии осадков обычно наблюдается дымка, при ухудшении видимости до 1 км и менее - туман. В сухую погоду видимость может ухудшаться дымом, пылью или мглою.
Явления - указаны атмосферные явления, наблюдавшиеся в срок или в последний час перед сроком; фигурными скобками обозначены явления, наблюдавшиеся между сроками (за 1-3 часа до срока); квадратными скобками обозначены град или гололедные отложения с указанием их диаметра в мм.
Облачность - указаны через наклонную черту общая и нижняя облачность в баллах и высота нижней границы облаков в метрах; квадратными скобками обозначены формы облаков: Ci - перистые, Cs - перисто-слоистые, Cc - перисто-кучевые, Ac - высококучевые, As - высокослоистые, Sc - слоисто-кучевые, Ns - слоисто-дождевые, Cu - кучевые, Cb - кучево-дождевые. Подробнее классификацию облаков см. в Атласе облаков (PDF).
T - Температура воздуха - температура, измеренная на высоте 2 м над землей.
Td - Температура точки росы - температура, при понижении до которой содержащийся в воздухе водяной пар достигнет насыщения.
f - Относительная влажность воздуха - влажноcть воздуха, измеренная на высоте 2 м над землей.
Te - Эффективная температура - температура, которую ощущает одетый по сезону человек в тени. Характеристика душности погоды. При расчете учитывается влияние влажности воздуха и скорости ветра на теплоощущения человека.
Tes - Эффективная температура на солнце - температура, которую ощущает человек, с поправкой на солнечный нагрев. Характеристика знойности погоды. Зависит от высоты солнца над горизонтом, облачности и скорости ветра. Ночью, в пасмурную погоду, а также при ветре 12 м/с и более поправка равна нулю.
P - Атмосферное давление - приведенное к уровню моря атмосферное давление.
Po - Атмосферное давление - измеренное на уровне метеостанции атмосферное давление.
Tmin - Минимальная температура - минимум температуры воздуха на высоте 2 м над землей.
Tmax - Максимальная температура - максимум температуры воздуха на высоте 2 м над землей.
R - Количество осадков - Количество выпавших осадков за период времени, мм. При наведении курсора мыши на число - период времени, за который выпало указанное количество осадков.
R24 - Количество осадков - Количество выпавших осадков за 24 часа, мм.
S - Снежный покров - Высота снежного покрова, см. При наведении курсора мыши на число - состояние снежного покрова и степень покрытия местности в баллах.